Location: Unspecified
(48.7170°N, 0.0000°E)
Time: 03:33:01
(UTC+00:00)

ISS - Pass Details

Date: 25 May 2019
Orbit: 408 x 418 km, 51.6° (Epoch: 18 June)

Event Time Altitude Azimuth Distance (km) Brightness Sun altitude
Rises 22:57:06 0° 290° (WNW) 2,362 0.6 -19.0°
Reaches altitude 10° 22:59:12 10° 290° (WNW) 1,499 -0.5 -19.1°
Maximum altitude 23:02:34 87° 201° (SSW) 424 -3.9 -19.2°
Enters shadow 23:02:48 76° 126° (SE) 436 -3.9 -19.2°
